User: anonymous   Login
Location: Unspecified
(0.0000°N, 0.0000°E)
Time: 13:50:24
(UTC+00:00)
Language:

PAYLOAD C - Orbit

View from above orbital plane
View from above orbital plane
View from above satellite
View from above satellite

Ground track
Ground track

The orbit data is extracted from the following two-line orbital elements,

1 27842U 03031C   17114.91569514 +.00000084 +00000-0 +57668-4 0  9992
2 27842 098.6837 123.5281 0010388 112.8730 247.3546 14.22097808716871
Epoch (UTC): 24 April 2017 21:58:36
Eccentricity: 0.0010388
inclination: 98.6837°
perigee height: 811 km
apogee height: 826 km
right ascension of ascending node: 123.5281°
argument of perigee: 112.8730°
revolutions per day: 14.22097808
mean anomaly at epoch: 247.3546°
orbit number at epoch: 71687

The dashed part of the orbit path shows where the satellite is in the earth's shadow,  

DLR